Location: Grasslands National Park East Block
(49.0708°N, 106.5295°W)
Time: 04:45:51
(UTC-06:00)

Vanguard 1 Rocket - Pass Details

Date: 28 September 2019
Orbit: 650 x 4226 km, 34.3° (Epoch: 17 October)

Event Time Altitude Azimuth Distance (km) Brightness Sun altitude
Rises 15:58:08 0° 221° (SW) 8,193 13.6 25.6°
Reaches altitude 10° 16:04:12 10° 215° (SW) 7,349 13.5 24.8°
Maximum altitude 16:26:52 41° 156° (SSE) 4,913 11.4 21.7°
Drops below altitude 10° 16:44:01 10° 95° (E) 5,713 11.0 19.2°
Sets 16:47:56 0° 89° (E) 6,310 11.2 18.7°
